GFSSGP_850_spd_258.txt.gz
Wind_Speed
2 2 3 2 4 5 2 3 2 2 2 3 6 8 8 5 3 2 6 5 5 3 2 1 1 1 1 1 2 3 3 3 3 3 4 5 4 4 3 4 6 6 8 8 9 9 9 9 9
2 3 3 3 5 4 4 2 5 2 3 4 11 8 5 3 4 8 5 8 6 3 2 2 2 2 1 2 4 5 5 5 4 4 4 4 4 4 3 5 5 7 7 8 7 8 8 8 9
1 3 3 4 4 3 3 1 4 2 6 5 3 6 4 4 6 6 6 7 5 3 3 5 4 2 2 3 4 4 4 3 3 3 4 5 4 5 5 5 5 6 6 6 6 7 7 8 8
1 3 5 5 4 2 5 4 3 3 4 5 5 5 5 5 4 5 7 6 3 3 2 3 2 1 1 1 2 1 0 1 2 3 4 4 3 4 4 4 3 5 5 5 4 5 5 6 7
6 3 4 4 3 2 2 5 4 2 3 3 3 4 5 6 4 5 6 5 3 3 2 3 2 1 2 2 3 5 6 6 4 4 4 4 4 4 4 2 2 3 3 4 4 4 3 3 4
4 3 5 3 3 3 2 1 3 2 2 2 4 7 4 6 4 7 6 6 5 4 5 3 2 2 3 2 1 4 4 5 7 9 7 7 7 7 5 3 2 2 3 3 3 3 1 1 2
6 4 4 4 5 1 2 1 3 3 3 1 3 5 6 9 6 6 7 7 8 4 1 3 2 4 5 5 6 7 7 5 4 5 6 8 8 8 7 5 3 3 2 3 4 4 4 2 1
5 5 3 2 4 4 3 2 2 3 3 2 1 5 5 12 8 7 7 8 7 5 2 0 1 1 3 5 6 7 7 4 3 3 4 7 8 8 8 7 7 6 5 4 6 6 6 4 4
5 4 2 5 6 3 2 2 1 1 1 2 2 4 3 10 10 8 7 8 8 6 4 5 3 2 3 3 4 4 4 4 4 4 4 6 7 8 7 8 7 6 6 7 8 9 8 8 5
4 4 8 3 3 4 2 3 2 2 2 3 4 5 8 11 9 8 8 9 10 8 6 5 3 3 3 3 4 4 3 4 5 6 8 8 8 10 7 11 12 11 9 14 13 10 12 10 7
2 5 6 5 5 3 3 2 2 3 4 6 5 10 11 9 7 7 9 8 6 9 9 9 3 3 4 2 4 5 6 6 6 6 7 9 11 10 9 11 11 13 12 11 12 14 13 11 11
4 2 5 7 5 3 2 3 4 7 5 4 5 5 11 12 11 8 9 10 11 9 11 12 8 6 5 4 4 5 6 6 7 8 9 8 11 11 14 15 14 13 11 11 11 11 10 11 12
3 3 2 3 3 2 3 5 6 12 9 7 6 10 9 11 12 10 7 10 12 11 9 12 11 8 7 7 6 6 4 4 5 8 11 12 12 14 14 15 16 16 18 18 17 18 19 19 19
3 4 2 3 3 3 3 3 3 3 5 15 11 10 9 9 10 12 13 15 15 13 12 11 11 10 10 9 8 8 7 8 7 7 9 10 11 12 13 14 13 13 14 15 16 16 15 14 16
5 3 3 4 2 3 2 2 7 8 8 10 10 9 9 9 10 11 14 17 18 15 14 13 12 12 12 10 10 10 10 10 9 9 9 10 10 11 11 13 13 13 11 12 12 12 13 13 14
2 3 1 2 2 1 2 7 5 10 12 11 9 10 12 14 13 12 13 15 19 19 16 13 13 13 13 12 12 12 11 11 10 10 11 11 11 11 12 11 11 12 12 13 14 15 15 16 17
4 2 3 3 1 2 2 6 6 7 15 12 13 11 10 9 11 16 15 15 20 21 18 15 13 13 14 14 12 12 12 12 11 11 10 11 12 13 13 13 14 15 15 17 17 16 16 16 16
5 3 2 3 1 1 5 12 10 15 15 20 18 16 15 10 9 14 16 17 18 19 17 14 13 12 14 14 13 13 12 12 12 12 12 12 12 13 13 14 14 14 15 16 16 15 15 15 15
4 2 2 3 1 2 7 8 16 20 21 21 21 20 17 12 9 7 10 12 15 18 19 17 15 13 15 15 14 13 13 13 13 13 13 12 12 12 13 13 13 12 13 13 13 13 12 13 12
3 1 4 4 2 3 7 18 17 9 11 24 27 19 17 11 8 7 8 11 14 17 18 18 16 15 14 15 14 14 13 14 13 14 13 12 11 11 11 12 12 13 13 13 13 12 12 11 10
0 2 3 4 7 2 7 9 5 2 2 6 17 19 15 12 10 9 10 13 19 21 21 20 18 16 15 16 16 15 15 14 13 13 13 12 11 10 10 10 11 11 11 11 11 11 11 10 9
4 6 4 2 4 3 4 5 6 4 4 2 15 19 18 16 13 11 11 12 18 22 20 18 17 17 16 16 16 16 15 16 15 14 13 12 11 11 10 10 10 10 10 10 9 10 10 9 9
3 3 3 2 3 3 1 3 8 3 6 8 16 22 21 18 14 13 12 11 12 18 18 16 17 17 16 17 17 17 17 18 18 17 16 15 14 12 11 11 11 11 11 11 10 10 10 10 9
7 5 5 4 3 1 5 6 6 5 7 5 14 27 24 19 15 12 10 11 12 15 16 16 16 16 17 18 18 19 19 19 20 19 18 16 15 15 14 13 13 12 11 11 11 11 10 10 9
3 5 3 4 2 6 4 2 9 7 8 6 13 26 25 19 17 13 12 13 13 13 13 13 13 13 13 14 17 19 21 21 22 21 19 19 17 17 15 14 14 14 13 12 12 12 11 11 9
6 7 5 8 4 5 2 7 7 6 14 15 14 28 24 20 17 15 13 14 13 12 11 11 10 9 11 12 13 17 20 23 24 23 22 21 20 18 17 16 15 14 14 13 14 13 12 11 10
6 5 3 0 1 2 5 7 8 3 2 3 15 26 25 21 18 17 15 15 14 13 13 12 12 12 12 12 16 18 19 22 25 26 24 23 22 20 18 17 16 15 14 14 14 14 13 12 11
4 4 3 1 3 6 5 6 7 6 8 7 9 22 24 20 18 18 19 19 17 16 16 16 14 12 12 15 18 21 22 23 23 25 26 25 23 21 19 18 17 16 14 14 14 14 12 12 11
4 3 3 3 5 5 4 8 7 9 11 15 14 27 26 25 23 23 22 21 19 18 18 16 14 11 12 15 20 23 23 24 23 24 24 23 21 20 19 19 18 17 13 14 14 13 12 12 11
3 11 12 6 7 4 1 19 5 8 11 20 22 30 27 26 25 24 24 22 21 20 17 15 15 15 16 17 20 21 21 22 22 22 22 21 21 21 19 19 17 16 13 13 15 14 15 12 12

GFSSGP_850_spd_261.txt.gz
Wind_Speed
1 2 3 1 4 5 1 1 2 1 1 2 4 7 8 4 2 3 6 5 3 1 3 3 1 1 1 1 2 2 2 1 1 1 1 0 1 2 3 4 6 6 8 9 10 10 9 7 7
2 3 2 2 5 4 3 3 3 2 4 10 8 6 4 2 3 8 6 7 4 1 1 1 2 2 1 2 3 3 2 2 2 1 0 1 0 0 2 4 6 7 7 8 9 9 8 7 7
3 2 2 4 4 4 4 4 5 3 4 5 4 5 3 5 7 7 6 8 4 1 1 2 2 2 1 1 1 1 1 1 2 1 1 1 1 2 1 4 4 4 6 7 7 7 7 7 6
2 2 6 5 3 2 4 5 4 4 3 2 7 6 5 4 4 6 7 6 4 4 3 1 1 1 1 0 2 2 0 1 1 2 2 2 2 2 2 0 5 3 3 4 5 6 6 6 5
4 4 5 4 1 1 2 3 6 2 2 3 4 5 6 7 6 7 7 5 3 2 4 2 1 1 1 0 2 2 4 5 5 4 4 3 3 2 3 2 2 1 2 3 4 4 4 4 3
3 3 5 2 2 3 4 2 4 3 2 2 4 8 4 8 7 8 7 5 5 3 3 4 3 3 2 2 1 2 3 3 4 5 6 6 6 6 6 5 3 1 1 1 2 3 2 3 1
6 4 5 5 4 2 4 4 4 5 3 2 7 5 4 11 9 9 8 8 7 3 2 4 4 4 4 5 5 6 5 4 3 3 4 5 6 7 7 7 5 4 2 2 0 1 3 2 1
4 5 5 3 6 5 4 3 3 5 4 5 4 4 4 12 12 11 10 9 8 6 4 4 4 3 4 5 6 7 5 4 2 3 3 4 5 7 7 8 8 7 7 6 5 4 4 4 3
2 5 4 8 7 4 4 3 3 3 4 4 4 4 3 11 13 12 12 11 9 8 7 6 5 4 4 5 5 5 5 4 3 4 3 5 4 7 7 7 8 8 9 10 8 10 8 8 6
4 4 9 6 7 5 5 4 4 2 3 4 6 7 7 13 12 11 12 12 12 9 8 8 6 5 5 5 5 6 6 5 6 6 6 7 6 7 7 9 10 11 12 9 11 13 13 10 12
3 3 3 2 4 5 4 2 3 3 5 10 8 10 14 15 13 12 11 13 10 9 9 5 4 4 5 6 6 7 7 7 7 7 7 8 9 9 10 12 11 11 12 13 13 10 16 17 15
3 3 3 4 2 2 2 2 3 11 6 5 6 5 12 15 14 12 12 13 13 12 9 10 8 6 6 6 6 7 7 9 9 9 8 8 8 10 12 13 14 15 13 11 11 9 11 14 12
2 3 3 4 3 2 3 6 6 13 12 11 8 10 11 14 14 13 11 11 13 13 10 10 10 9 8 7 6 6 6 5 6 8 9 11 13 12 14 14 15 16 16 16 16 16 15 16 19
2 3 2 1 0 2 2 3 5 4 10 16 11 12 14 15 13 14 16 15 16 13 11 10 10 11 10 8 7 7 8 8 7 8 9 10 13 14 14 14 14 14 14 16 15 14 15 16 16
4 2 3 2 1 2 1 5 7 9 3 15 18 15 14 13 13 14 14 17 15 13 13 12 10 11 10 9 9 9 10 10 9 9 10 11 12 13 13 14 13 14 15 13 11 11 11 12 13
3 4 2 1 2 1 2 8 3 6 11 13 15 14 14 15 15 15 14 16 16 18 15 13 11 11 11 11 10 10 11 11 10 10 11 12 12 13 14 13 14 14 12 12 12 13 14 14 15
6 1 2 4 2 2 2 7 4 4 13 16 17 14 14 14 14 16 15 14 14 18 18 16 13 12 12 12 12 12 12 12 11 11 11 12 13 14 14 14 15 15 15 15 15 15 16 16 16
2 2 2 4 3 2 4 12 13 22 15 24 21 18 17 16 13 13 15 16 15 16 20 17 13 12 12 14 14 13 13 13 12 12 12 13 14 14 15 15 15 15 16 16 16 16 16 16 16
4 2 2 3 1 2 5 9 18 20 19 26 28 21 20 20 14 13 16 18 18 18 21 20 17 14 13 14 15 14 13 13 13 13 13 14 14 14 14 14 15 14 14 15 14 14 14 15 15
5 4 5 5 1 1 5 17 14 11 10 17 25 32 27 23 19 17 15 16 16 17 20 22 19 16 12 12 14 14 13 13 13 14 14 14 13 14 14 14 14 15 14 13 13 14 14 14 12
2 4 3 4 5 1 6 9 5 4 5 8 12 18 27 28 23 19 17 15 16 17 19 21 19 16 13 12 14 15 15 14 13 13 14 14 14 13 13 14 14 14 14 13 12 12 12 12 11
4 2 3 3 4 3 4 5 6 6 9 6 11 19 28 28 22 18 16 16 15 17 18 21 20 16 14 14 15 16 16 15 15 15 15 15 14 14 14 13 14 14 14 13 12 11 11 11 11
3 4 4 3 4 4 1 2 9 3 8 10 15 23 25 24 20 18 16 16 15 17 20 20 20 19 17 16 16 16 17 17 17 17 17 16 16 16 16 15 15 15 15 14 13 11 11 11 11
10 5 5 4 3 1 6 7 5 5 7 5 7 25 28 27 24 20 17 16 15 16 20 21 21 19 17 16 16 17 17 17 19 20 19 17 17 17 17 17 16 16 16 15 14 12 12 11 11
3 5 2 4 1 6 4 3 9 7 8 4 6 20 28 25 23 20 19 18 18 19 21 21 20 18 15 14 13 13 14 17 19 21 21 20 19 18 17 18 17 17 17 16 15 13 12 12 11
6 7 6 8 4 4 4 8 8 9 9 17 24 15 25 29 27 24 21 19 19 20 20 19 17 15 14 12 12 13 15 17 19 20 21 21 21 19 19 19 19 18 18 17 16 14 13 13 11
5 4 2 2 2 2 5 7 7 9 10 10 8 16 25 33 29 27 24 21 21 22 20 18 17 16 15 14 13 16 18 19 19 20 20 21 21 21 21 20 20 19 18 17 16 14 14 12 11
5 4 3 1 3 8 5 6 6 4 11 5 8 19 25 32 29 26 25 23 23 22 20 19 19 18 16 16 15 16 19 21 22 22 20 19 20 21 21 20 20 19 19 18 16 13 13 11 12
3 3 3 2 4 5 13 8 7 9 9 9 11 22 26 32 29 26 24 22 23 22 21 20 20 18 17 15 13 17 19 21 21 20 17 17 18 19 20 20 20 19 19 18 17 15 13 13 14
5 9 9 8 7 4 3 18 5 5 3 11 20 26 27 29 27 24 23 23 24 23 22 21 19 19 16 16 18 19 20 20 19 17 14 14 16 17 18 19 20 21 19 19 16 15 15 15 14

GFSSGP_850_spd_264.txt.gz
Wind_Speed
2 3 3 2 4 5 1 2 1 2 1 1 3 5 7 4 2 2 8 6 3 2 1 2 2 2 1 0 1 1 1 2 2 2 2 3 3 3 7 8 8 8 9 10 9 7 6 5 5
2 4 3 3 5 4 4 3 4 3 3 12 6 4 3 1 4 7 7 7 4 2 1 1 1 1 1 1 1 0 1 2 3 3 3 2 3 1 4 6 7 6 7 8 8 7 6 4 3
5 3 1 5 4 4 4 4 4 1 5 4 3 3 3 5 7 7 6 7 5 4 3 2 1 1 1 0 1 1 2 1 2 2 2 1 2 2 4 6 6 5 5 6 6 6 6 4 3
4 3 5 4 1 2 3 4 4 2 3 4 5 3 3 4 7 5 6 5 3 3 4 2 2 1 1 1 2 3 2 1 1 1 2 2 2 2 3 2 1 3 3 5 5 5 4 4 2
2 2 4 4 2 2 3 4 10 4 3 4 5 4 4 6 5 7 7 6 3 2 6 4 3 2 2 2 3 3 1 2 3 3 2 3 3 3 3 4 2 2 2 3 4 4 3 2 2
1 3 4 3 3 3 3 6 7 5 5 4 3 8 4 8 9 8 8 7 5 3 4 5 4 3 2 3 4 2 1 2 2 3 3 3 3 4 5 5 4 4 3 3 2 2 2 2 2
4 4 5 5 3 2 5 9 5 7 5 6 6 5 4 13 11 9 9 8 6 4 3 5 5 4 4 4 4 4 4 3 3 3 3 4 4 5 6 6 6 5 3 3 1 1 2 1 3
2 5 4 4 6 5 4 7 4 8 6 7 8 4 4 15 13 13 12 10 9 6 5 5 5 5 4 5 5 5 3 2 1 1 1 2 3 4 4 6 5 5 4 4 4 5 5 5 6
1 4 3 5 7 4 6 4 5 3 4 8 8 5 4 12 15 15 14 14 12 8 9 7 6 5 4 3 3 3 3 1 1 1 1 1 3 3 5 5 7 7 8 8 9 8 8 8 7
3 3 6 4 4 2 5 4 5 3 4 6 8 9 8 13 16 15 15 13 12 8 8 8 7 5 4 4 3 3 3 3 3 3 3 4 4 4 5 6 7 8 8 11 10 12 17 14 12
1 2 3 2 3 4 4 1 3 4 5 11 13 13 13 17 17 16 14 13 10 8 8 4 7 4 4 4 4 5 4 4 5 5 5 5 7 8 9 10 11 11 11 11 14 12 12 11 14
1 1 1 4 3 2 3 1 3 10 7 4 10 9 13 17 18 16 14 12 12 11 7 7 7 5 5 5 5 5 5 5 7 7 7 7 6 7 10 12 13 13 14 14 13 11 11 10 11
2 0 2 2 2 0 2 4 6 15 14 12 9 12 13 15 16 15 13 12 12 13 10 7 7 7 6 6 5 5 5 4 5 6 7 8 9 11 11 12 13 14 15 16 16 15 15 16 15
1 2 1 1 1 2 2 3 2 3 6 15 14 13 14 15 14 15 17 16 16 12 11 9 7 7 8 8 7 6 6 6 6 6 7 9 9 11 11 11 11 13 12 13 14 14 13 14 15
3 1 2 1 1 2 4 6 8 13 7 13 17 15 14 15 16 17 15 16 15 12 11 10 8 8 9 9 9 8 7 6 6 7 8 9 10 11 12 12 13 13 13 15 15 11 11 11 12
3 4 3 2 2 1 2 8 4 3 6 7 15 16 16 15 16 15 14 16 17 16 15 13 12 10 9 10 10 9 8 7 7 8 9 10 11 11 12 13 13 13 13 13 12 12 13 14 15
6 2 2 5 2 2 2 7 5 2 7 12 14 17 18 17 17 17 17 18 18 17 17 17 14 11 10 11 11 10 9 9 8 9 9 10 11 12 13 13 13 14 14 15 15 15 16 16 17
5 3 4 5 3 3 4 13 13 27 19 24 25 23 24 23 20 18 16 19 19 16 17 19 17 14 11 11 12 12 11 10 9 9 10 11 12 13 13 13 13 13 13 14 14 15 15 16 17
3 3 5 3 2 2 6 9 16 20 19 27 31 29 32 32 22 20 17 16 19 18 18 22 21 17 13 11 12 14 13 11 11 11 11 11 13 13 13 12 13 13 13 13 14 14 14 14 14
4 4 5 3 2 1 5 17 14 10 11 20 28 30 36 34 25 23 19 18 18 18 18 22 22 19 14 12 12 13 14 14 12 11 11 12 12 13 13 13 13 13 13 13 13 13 14 14 13
4 5 3 4 3 1 5 9 6 3 8 15 18 19 21 32 33 28 24 21 20 20 20 22 22 20 17 14 14 15 16 15 13 12 11 12 12 12 12 13 13 14 14 13 13 13 13 13 12
4 4 4 3 3 4 3 5 7 7 11 7 25 18 19 22 31 29 25 23 20 19 19 21 22 22 19 18 16 14 14 15 13 13 13 13 13 13 13 14 14 14 14 13 13 13 12 13 12
3 4 4 3 4 4 1 3 9 3 9 14 9 21 21 21 28 28 24 21 19 19 21 22 24 23 22 19 15 14 15 15 15 15 15 15 15 14 15 15 15 15 15 14 14 13 12 12 13
8 6 5 4 3 1 5 7 5 5 7 7 5 12 19 22 28 27 24 22 22 21 20 22 24 24 22 19 16 15 14 13 15 15 16 16 17 17 16 16 16 16 16 15 15 14 13 13 13
3 5 3 4 2 6 1 2 8 8 12 7 8 8 10 19 24 25 25 23 21 20 20 22 24 23 21 19 17 15 13 13 14 15 16 18 18 19 17 17 17 17 16 16 16 15 14 13 13
7 7 5 7 3 4 3 7 7 9 15 21 24 20 15 17 26 27 25 22 20 20 20 22 23 23 22 20 17 15 14 13 13 15 17 19 20 19 19 19 18 18 18 17 16 15 14 13 13
5 4 2 2 2 1 6 7 7 11 13 12 12 11 17 18 26 29 26 23 21 21 21 23 24 23 22 20 18 17 15 14 13 16 19 21 21 19 19 19 19 18 18 17 17 16 14 13 13
4 5 3 1 3 7 4 5 6 6 10 9 6 17 16 16 21 28 27 24 22 22 22 23 23 22 21 20 19 17 15 13 14 18 21 22 20 19 18 19 19 18 18 17 16 15 15 14 12
3 3 1 2 4 4 9 7 7 9 6 6 9 15 17 17 19 26 26 23 23 22 24 25 24 23 23 21 18 16 14 14 16 19 20 19 18 17 17 17 17 17 17 17 17 15 15 15 14
3 7 9 5 6 4 2 18 5 4 2 4 11 12 15 15 18 22 26 25 25 24 25 24 24 22 19 17 17 17 17 17 19 20 19 16 15 16 17 17 16 16 17 17 16 16 15 16 16

GFSSGP_850_spd_267.txt.gz
Wind_Speed
2 2 3 2 3 4 1 3 1 1 0 1 2 3 3 4 2 1 10 9 7 5 4 4 3 3 3 3 2 3 4 3 4 3 3 4 4 4 5 7 8 9 9 9 9 8 7 7 7
3 5 2 2 3 2 2 1 3 2 2 12 8 6 2 2 3 6 8 9 8 4 4 4 3 1 2 3 3 3 3 4 3 3 4 3 3 3 6 7 7 8 8 8 8 8 7 6 6
4 3 0 4 3 3 3 4 4 4 8 4 4 3 4 6 6 8 6 9 7 5 4 4 3 3 2 2 3 4 3 3 4 3 2 2 2 3 5 5 6 6 7 7 8 8 8 7 6
3 2 5 3 2 2 2 4 6 5 3 5 3 4 4 6 7 6 8 8 6 5 5 4 3 3 3 3 4 4 4 3 3 2 2 1 1 1 2 1 2 4 5 6 5 5 5 5 5
3 1 3 3 2 2 3 3 9 5 4 6 7 4 3 9 7 9 9 8 5 3 6 4 4 3 3 3 4 4 1 1 1 1 1 1 1 1 1 1 1 2 3 4 4 3 3 3 3
1 2 3 2 3 2 4 6 8 4 5 6 5 8 5 10 11 11 10 8 6 5 4 4 4 4 4 5 5 3 2 1 1 2 2 3 2 1 2 3 2 2 2 2 2 3 3 3 3
3 3 2 3 3 2 5 9 5 7 5 5 3 6 4 13 13 12 11 10 8 5 4 5 5 4 4 5 4 2 2 2 2 2 2 3 2 2 3 4 3 2 1 1 2 2 3 5 6
3 5 2 3 4 4 6 11 5 9 6 4 9 4 3 12 15 14 13 11 9 6 5 5 5 5 4 4 4 4 3 2 2 2 2 2 2 2 2 3 4 3 4 2 3 5 7 5 6
3 4 2 4 6 3 6 3 6 4 5 10 9 6 4 10 16 16 15 13 12 9 7 7 6 5 4 4 3 2 2 2 2 2 1 1 1 1 2 3 4 5 5 5 6 7 8 7 10
3 3 5 4 4 3 5 3 6 2 5 7 11 12 10 12 16 16 15 13 12 10 8 8 7 6 5 4 3 2 2 2 2 1 1 1 2 2 3 3 4 5 6 7 9 9 12 14 14
3 4 3 3 4 5 6 2 4 4 4 12 14 16 15 16 18 17 15 12 8 8 8 7 10 7 6 4 4 3 3 3 2 2 2 3 3 4 6 6 8 8 9 9 10 12 12 12 9
2 1 2 3 2 2 3 2 3 10 6 3 9 10 16 18 19 18 16 12 11 10 9 9 9 7 5 5 4 3 4 3 4 4 3 4 4 4 5 8 10 11 11 11 11 12 13 10 8
1 2 2 3 3 1 2 4 6 15 12 13 10 9 13 16 16 16 14 12 12 13 11 10 10 9 6 6 5 5 5 4 2 2 2 3 5 7 9 10 12 12 13 13 13 14 14 13 13
3 2 3 3 2 1 1 2 2 2 3 11 17 14 14 16 15 15 16 15 14 12 12 11 10 10 8 8 7 7 6 5 4 3 4 4 5 6 8 9 10 10 11 12 13 13 13 11 11
4 2 1 1 2 1 2 3 7 12 13 8 15 15 16 17 18 18 15 15 15 13 13 14 12 11 9 9 9 9 8 7 6 5 5 6 7 8 8 9 9 10 10 11 12 12 11 8 10
2 4 1 2 3 2 2 7 6 5 9 10 14 19 19 19 19 16 16 16 17 17 17 16 15 13 11 11 11 10 9 8 8 7 6 7 8 9 9 10 10 11 11 11 11 10 9 11 12
5 3 4 4 4 2 4 6 6 8 10 14 17 20 24 24 23 21 20 19 18 18 19 20 19 17 13 12 12 12 11 10 8 7 7 7 8 9 10 11 11 11 11 11 11 11 12 12 13
5 4 3 4 2 0 3 13 10 15 17 26 24 24 27 29 28 20 20 19 19 20 21 22 22 20 17 14 15 14 13 11 9 8 7 8 9 10 11 11 11 11 11 11 11 11 12 12 12
4 4 4 3 0 1 6 9 18 18 21 26 31 34 38 37 30 25 22 22 21 24 24 25 26 24 21 18 16 16 14 12 10 9 8 8 8 10 10 10 11 11 11 11 11 11 11 12 11
2 1 4 3 1 0 6 17 15 15 11 19 24 26 31 35 35 34 29 27 24 24 25 26 27 26 21 16 13 13 12 12 11 9 8 8 9 10 10 10 11 11 11 12 12 12 12 12 11
1 3 3 3 2 1 5 9 5 4 6 12 19 21 22 24 27 35 32 28 23 25 25 25 25 25 22 19 17 14 14 13 11 9 8 8 9 10 10 11 11 12 12 12 12 12 12 12 12
2 2 2 3 3 3 3 6 5 5 9 8 28 25 27 23 22 25 32 28 23 22 22 22 24 25 23 21 18 15 12 11 10 9 9 10 10 11 11 12 12 13 13 13 13 12 12 13 12
4 3 4 3 4 4 3 2 9 2 8 13 15 19 18 20 19 18 29 25 21 19 19 20 22 24 24 23 20 16 14 12 11 10 10 10 11 12 12 13 14 14 15 15 14 14 13 13 13
9 5 5 4 3 1 7 7 7 5 7 5 3 11 10 9 12 14 23 25 24 23 22 22 25 27 27 26 22 19 15 13 12 11 11 12 12 12 12 14 14 15 16 16 16 16 15 14 14
1 5 2 3 1 6 2 3 10 8 9 7 11 15 7 4 9 16 24 26 24 23 22 23 26 29 29 27 24 20 16 15 14 13 12 12 12 13 13 15 15 16 17 17 17 17 16 15 15
5 5 5 7 4 3 2 7 7 9 20 26 26 22 17 15 13 18 23 24 23 22 23 23 24 28 29 27 24 20 18 17 15 13 12 12 14 16 16 16 16 16 17 17 17 17 17 16 15
5 4 1 3 2 1 5 6 8 9 12 14 12 11 12 12 13 18 22 25 23 23 22 22 22 26 28 26 24 22 20 19 16 13 13 13 15 17 17 17 16 16 17 17 17 17 17 15 15
3 4 3 2 3 6 4 4 5 5 9 8 9 13 14 13 13 14 20 24 23 23 22 22 22 24 26 26 25 24 22 19 16 15 14 14 16 16 16 15 15 15 16 17 17 17 16 16 15
3 3 1 2 4 4 5 5 6 4 4 5 7 14 17 15 12 12 14 21 22 22 22 22 24 26 28 28 26 24 22 19 17 15 15 15 16 15 14 13 14 15 15 16 16 16 16 16 15
3 6 6 4 5 3 1 12 1 4 5 7 14 24 26 25 21 16 12 19 23 24 24 24 24 26 26 26 24 22 20 19 17 16 15 16 16 14 15 14 15 15 14 14 15 16 16 16 15

GFSSGP_850_spd_270.txt.gz
Wind_Speed
1 3 4 1 4 3 2 3 1 5 5 3 5 2 1 1 2 3 7 8 8 6 5 4 4 4 3 3 4 3 3 3 2 2 2 3 4 7 7 7 7 8 8 10 10 10 9 9 8
1 3 2 2 4 5 4 4 6 5 7 11 9 6 4 2 2 4 6 10 8 6 5 5 4 3 3 3 4 4 4 3 3 2 3 3 4 4 5 6 7 7 8 9 9 9 9 9 9
3 3 1 2 3 4 1 7 6 8 13 5 4 2 3 2 5 7 7 11 9 6 5 5 4 4 4 4 4 5 4 4 3 3 3 3 3 4 5 6 6 6 6 6 6 7 7 7 7
3 1 1 5 5 1 1 7 6 10 7 4 3 3 2 6 6 7 10 10 8 6 5 5 5 4 4 5 5 6 5 4 3 3 2 2 2 2 2 3 3 3 3 3 5 5 5 6 6
3 1 4 4 3 1 3 5 8 7 6 7 7 3 2 6 8 9 10 9 7 6 6 6 6 5 4 5 6 6 4 4 3 2 2 2 1 1 1 1 2 2 2 3 4 4 5 7 6
2 1 4 7 3 3 3 7 7 7 4 5 5 4 3 8 10 11 11 10 8 6 8 6 6 6 6 6 6 4 3 2 2 3 3 2 1 1 1 1 0 1 1 1 2 3 4 5 6
2 2 3 3 2 3 5 9 9 9 7 8 2 4 2 9 13 13 12 10 9 7 7 8 7 7 6 7 6 4 2 2 3 3 4 3 4 4 3 2 2 2 2 2 1 1 4 6 5
3 2 2 3 4 2 5 10 4 9 8 5 7 4 3 10 16 15 14 12 11 9 7 9 8 8 8 7 7 6 4 3 3 4 4 3 3 3 3 3 4 3 3 4 3 5 8 7 8
4 4 4 2 5 3 7 7 4 4 4 7 8 4 4 9 17 16 16 15 14 11 9 9 8 8 8 8 7 6 5 4 4 4 4 4 3 4 4 4 5 5 5 6 6 7 7 7 13
3 3 2 1 1 1 9 7 7 5 8 8 9 11 9 10 17 17 17 15 14 11 10 10 9 9 8 8 7 6 5 5 5 5 4 4 4 5 5 5 5 5 5 6 8 9 9 11 11
2 3 1 1 2 1 6 5 5 5 7 10 10 11 13 12 16 17 15 13 12 11 10 11 11 10 9 8 7 7 6 6 6 5 5 5 5 5 6 6 6 7 8 9 10 10 10 9 8
3 1 2 2 3 3 4 3 4 11 7 6 6 11 13 16 17 17 16 14 14 13 11 12 12 12 10 9 8 7 7 7 6 6 6 6 5 5 6 6 8 9 10 11 12 12 11 11 11
4 4 3 3 4 3 3 6 7 13 13 13 13 11 13 16 18 17 16 15 15 15 14 14 14 13 11 10 10 9 9 8 6 5 5 5 6 7 8 9 9 11 12 12 12 12 12 11 11
3 4 3 4 4 4 4 4 2 6 8 13 17 16 14 17 19 19 21 21 19 16 17 17 17 17 15 12 12 11 10 8 8 6 6 5 6 6 7 7 8 9 9 9 10 12 12 13 12
4 2 2 7 5 4 3 8 10 12 12 11 13 17 19 21 22 24 22 22 20 18 17 21 20 19 17 14 14 12 11 10 9 8 7 7 7 7 7 8 9 9 9 10 10 11 11 9 10
3 2 4 4 5 2 3 11 6 8 11 13 14 18 23 25 27 25 23 23 23 21 22 23 23 20 19 16 14 14 13 12 11 9 8 7 7 6 7 8 9 9 10 10 10 10 9 10 11
3 4 6 2 4 1 7 7 1 6 8 12 14 16 20 21 25 26 25 25 23 22 23 25 24 23 20 17 16 16 16 15 13 10 9 8 7 7 8 8 9 9 9 10 10 11 11 11 12
4 5 4 6 2 4 8 17 14 9 8 14 16 17 19 22 28 27 25 24 24 23 24 25 25 25 22 20 18 18 17 15 13 11 9 8 7 7 7 8 9 8 9 10 10 10 11 11 12
1 2 5 2 2 3 10 15 19 18 16 22 26 25 27 29 27 28 29 26 26 25 26 27 28 27 26 23 20 19 18 16 14 12 10 9 7 7 8 8 8 8 8 9 10 10 11 11 11
5 7 9 3 1 3 11 18 19 21 18 22 21 20 23 24 26 32 32 30 28 26 26 28 29 29 27 24 20 19 17 16 15 14 12 10 8 7 7 7 8 9 9 10 10 11 11 12 11
7 10 6 4 2 2 10 14 8 2 5 11 16 18 19 19 19 21 31 36 30 28 26 28 29 29 28 26 22 20 18 17 17 15 14 12 9 8 7 8 9 9 10 11 11 11 11 10 12
10 7 5 4 3 5 4 9 13 7 11 12 15 14 17 18 21 20 21 34 36 29 25 27 28 29 30 29 26 22 19 17 17 17 16 14 11 9 8 9 9 10 12 13 13 13 13 13 11
1 3 4 2 3 4 5 5 6 2 13 16 17 2 8 9 12 14 17 25 29 28 25 25 26 28 30 30 27 23 21 19 18 18 17 15 12 11 10 10 11 13 14 14 14 14 14 14 14
11 5 4 4 1 4 8 10 16 8 9 4 3 4 12 12 4 7 12 20 29 27 25 25 27 29 31 31 30 27 23 21 20 20 18 15 13 12 11 11 12 14 15 16 16 16 15 15 15
3 5 2 3 3 5 4 6 15 18 14 10 14 10 11 13 11 7 10 20 27 28 25 25 27 29 31 33 32 29 25 23 21 20 18 16 14 11 11 12 14 16 16 16 17 17 16 16 16
9 4 4 4 3 2 2 7 5 9 17 10 9 11 13 10 10 10 11 16 22 24 24 24 24 26 28 32 33 30 27 25 23 21 19 17 14 12 12 15 17 17 17 17 17 17 17 17 17
6 8 1 4 2 4 7 8 10 13 13 12 17 17 17 13 12 11 9 15 19 21 22 22 23 25 28 32 33 31 29 27 24 20 18 16 14 13 15 17 18 17 17 16 16 17 17 16 16
3 5 3 2 4 8 5 5 6 4 9 11 16 18 19 21 22 18 13 11 17 21 21 22 23 25 26 30 33 33 29 26 24 21 20 16 14 15 17 18 17 16 16 16 16 15 15 15 15
5 4 2 2 3 4 8 3 2 5 10 11 15 18 20 20 24 23 19 14 12 19 21 22 24 24 25 28 32 31 30 27 25 22 19 16 15 17 18 18 17 15 15 15 15 14 14 14 15
3 6 12 6 7 5 4 8 6 11 14 16 14 18 20 21 21 22 23 21 15 16 21 24 25 24 25 26 30 30 27 24 23 21 18 16 16 18 18 17 15 13 13 12 13 14 15 15 16